Fort Huachuca, AZ

11:21 PM MST on January 19, 2017 (GMT -0700)
Sierra Vista Municipal-Libby Army Air Field

Weather History for KFHU - November, 2011

Change the Weather History Date:

Sunday, November 6, 2011

  Actual Average Record
Temperature  
Mean Temperature 50 °F -  
Max Temperature 60 °F 68 °F 84 °F (1999)
Min Temperature 39 °F 46 °F 33 °F (2000)
Degree Days  
Heating Degree Days 16    
Moisture  
Dew Point 32 °F    
Average Humidity 54    
Maximum Humidity 79    
Minimum Humidity 35    
Precipitation  
Precipitation 0.00 in - - ()
Sea Level Pressure  
Sea Level Pressure 29.93 in    
Wind  
Wind Speed 3 mph (West)    
Max Wind Speed 15 mph    
Max Gust Speed 23 mph    
Visibility 10 miles    
Events      
Averages and records for this station are not official NWS values.
T = Trace of Precipitation, MM = Missing Value Source: NWS Daily Summary

Daily Weather History Graph

Daily Weather History Graph

Search for Another Location

Airport or City:

Trip Planner

Search our weather history database for the weather conditions in past years. The results will help you decide how hot, cold, wet, or windy it might be!

Date:

Astronomy

Nov. 06, 2011 Rise Set
Actual Time 6:41 AM MST 5:28 PM MST
Civil Twilight 6:16 AM MST 5:53 PM MST
Nautical Twilight 5:47 AM MST 6:22 PM MST
Astronomical Twilight 5:18 AM MST 6:51 PM MST
Moon 3:03 PM MST (11/6) 3:02 AM MST (11/6)
Length of Visible Light 11h 37m
Length of Day
10h 46m
Waxing Gibbous, 86% of the Moon is Illuminated
Nov 6
Waxing Gibbous
Nov 10
Full
Nov 18
Last Quarter
Nov 24
New
Dec 2
First Quarter

Hourly Weather History & Observations

Time (MST) Temp. Windchill Dew Point Humidity Pressure Visibility Wind Dir Wind Speed Gust Speed Precip Events Conditions
12:56 AM 42.1 °F 40.2 °F 32.0 °F 67% 29.93 in 10.0 mi NNE 3.5 mph - N/A   Partly Cloudy
1:56 AM 42.1 °F - 33.1 °F 70% 29.92 in 10.0 mi Calm Calm - N/A   Mostly Cloudy
2:56 AM 43.0 °F - 33.1 °F 68% 29.91 in 10.0 mi Calm Calm - N/A   Mostly Cloudy
3:56 AM 43.0 °F - 32.0 °F 65% 29.91 in 10.0 mi Calm Calm - N/A   Partly Cloudy
4:56 AM 42.1 °F - 34.0 °F 73% 29.92 in 10.0 mi Calm Calm - N/A   Mostly Cloudy
5:56 AM 42.1 °F - 34.0 °F 73% 29.94 in 10.0 mi Calm Calm - N/A   Mostly Cloudy
6:56 AM 39.9 °F - 34.0 °F 79% 29.96 in 10.0 mi Calm Calm - N/A   Mostly Cloudy
7:56 AM 46.0 °F - 30.9 °F 56% 29.97 in 10.0 mi Calm Calm - N/A   Scattered Clouds
8:56 AM 50.0 °F - 33.1 °F 52% 29.97 in 10.0 mi NNE 4.6 mph - N/A   Overcast
9:56 AM 53.1 °F - 33.1 °F 47% 29.96 in 10.0 mi Variable 4.6 mph - N/A   Overcast
10:56 AM 52.0 °F - 32.0 °F 47% 29.96 in 10.0 mi Calm Calm - N/A   Mostly Cloudy
11:56 AM 55.0 °F - 33.1 °F 43% 29.94 in 10.0 mi Calm Calm - N/A   Mostly Cloudy
12:56 PM 57.9 °F - 33.1 °F 39% 29.91 in 10.0 mi Calm Calm - N/A   Mostly Cloudy
1:56 PM 60.1 °F - 32.0 °F 35% 29.89 in 10.0 mi WSW 10.4 mph 18.4 mph N/A   Clear
2:56 PM 60.1 °F - 32.0 °F 35% 29.88 in 10.0 mi West 12.7 mph 23.0 mph N/A   Partly Cloudy
3:56 PM 55.9 °F - 32.0 °F 40% 29.91 in 10.0 mi SW 15.0 mph 19.6 mph N/A   Scattered Clouds
4:56 PM 54.0 °F - 30.9 °F 41% 29.91 in 10.0 mi West 13.8 mph - N/A   Clear
5:56 PM 51.1 °F - 30.9 °F 46% 29.93 in 10.0 mi WSW 10.4 mph - N/A   Clear
6:56 PM 50.0 °F - 30.9 °F 48% 29.95 in 10.0 mi WSW 11.5 mph - N/A   Clear
7:56 PM 46.9 °F - 30.9 °F 54% 29.94 in 10.0 mi West 4.6 mph - N/A   Clear
8:56 PM 46.9 °F - 30.9 °F 54% 29.94 in 10.0 mi WNW 6.9 mph - N/A   Clear
9:56 PM 51.1 °F - 32.0 °F 48% 29.93 in 10.0 mi SSW 10.4 mph - N/A   Clear
10:56 PM 46.9 °F - 32.0 °F 56% 29.93 in 10.0 mi WNW 5.8 mph - N/A   Clear
11:00 PM - - - N/A% - - North - - N/A   Unknown
11:56 PM 46.9 °F - 32.0 °F 56% 29.92 in 10.0 mi Calm Calm - N/A   Mostly Cloudy